Content
SEND FEEDBACK

Daily
Averages
Monthly
Summary
United States of America

MEYERS, CALIFORNIA


Home > North America > United States > California
Elevation: 6470 feet     Latitude: 38 49N     Longitude: 120 01W

WEATHER
 
SELECT A DAY
Number of Records: 174,493;   Date Range: 1/1/95 - 8/12/14
 
SHARE

PRINT THIS DATA

[ ← Previous Day ]
WEATHER ALMANAC - FEBRUARY 9, 2013
[ Next Day → ]
[ °C ]   °F
Weather ElementAverageHighLow
Temperature21.3 °F35.1 °F (3:53 pm)9 °F (2:53 am)
Dewpoint9.7 °F14 °F (9:53 am)3 °F (2:53 am)
Humidity62.7 %80 % (5:53 am)38 % (1:53 pm)
Barometer30.00 in30.14 in (7:53 pm)29.87 in (3:03 am)
Wind Speed2 mph10.4 mph (1:53 pm)
Weather ElementAverage
Visibility9.8 mi
Wind DirectionNNE (36.9 °)

Weather ElementTotal
Precipitation---
Heating Degree Days43 (Base 65)
Averaged from 29 records on February 9, 2013
WEATHER CONDITIONS BREAKOUT
WIND DIRECTION BREAKOUT
WEATHER BY HOUR - FEBRUARY 9, 2013
[ °C ]   °F
Local TimeTemperatureDewpointHumidityBarometerVisibilityWind DirectionWind SpeedGust SpeedPrecipitationEventsConditions
1:53 AM12.0 °F6.1 °F77 %29.98 in10.0 miCalmClear
2:53 AM9.0 °F3.0 °F77 %29.99 in10.0 miSSW (200°)3.5 mphScattered Clouds
3:03 AM10.4 °F5.0 °F79 %29.87 in10.0 miCalmMostly Cloudy
3:53 AM12.0 °F6.1 °F77 %29.97 in10.0 miSSE (160°)3.5 mphOvercast
4:53 AM16.0 °F8.1 °F71 %29.96 in10.0 miCalmOvercast
5:26 AM14.0 °F6.8 °F73 %29.88 in10.0 miCalmScattered Clouds
5:53 AM12.0 °F7.0 °F80 %29.98 in10.0 miCalmClear
6:53 AM10.0 °F5.0 °F80 %30.00 in10.0 miCalmClear
7:53 AM10.0 °F3.9 °F76 %30.04 in10.0 miCalmClear
8:53 AM18.0 °F9.0 °F68 %30.03 in10.0 miSouth (180°)3.5 mphClear
9:11 AM21.2 °F10.4 °F63 %29.93 in10.0 miCalmMostly Cloudy
9:28 AM23.0 °F10.4 °F59 %29.94 in4.0 miCalmHaze
9:37 AM24.8 °F12.2 °F59 %29.94 in10.0 miCalmMostly Cloudy
9:44 AM24.8 °F12.2 °F59 %29.94 in10.0 miCalmPartly Cloudy
9:53 AM26.1 °F14.0 °F60 %30.00 in10.0 miCalmClear
10:53 AM28.9 °F12.9 °F51 %29.98 in10.0 miCalmClear
11:53 AM32.0 °F12.0 °F44 %29.98 in10.0 miNNE (20°)8.1 mphClear
12:53 PM33.1 °F12.0 °F42 %29.99 in10.0 miNNE (30°)9.2 mphClear
1:53 PM34.0 °F10.9 °F38 %29.99 in10.0 miNNE (30°)10.4 mphClear
2:53 PM34.0 °F12.0 °F40 %30.01 in10.0 miNNE (20°)4.6 mphClear
3:53 PM35.1 °F12.0 °F39 %30.00 in10.0 miVariable3.5 mphClear
4:53 PM30.9 °F12.0 °F46 %30.02 in10.0 miNNE (30°)3.5 mphClear
5:53 PM27.0 °F12.9 °F56 %30.05 in10.0 miCalmClear
6:53 PM23.0 °F12.9 °F65 %30.11 in10.0 miCalmClear
7:53 PM21.0 °F12.0 °F68 %30.14 in10.0 miCalmClear
8:53 PM19.9 °F12.0 °F71 %30.13 in10.0 miCalmClear
9:53 PM19.9 °F10.0 °F65 %30.09 in10.0 miSouth (180°)4.6 mphClear
10:53 PM18.0 °F9.0 °F68 %30.09 in10.0 miCalmClear
11:53 PM18.0 °F9.0 °F68 %30.09 in10.0 miSW (220°)3.5 mphClear
Hourly data recorded from KTVL, located miles away from Meyers, California







STORIES FROM OUR PARTNERS